Location: Unspecified
(49.2170°N, 0.0000°E)
Time: 05:04:33
(UTC+00:00)

Transit 2A - Pass Details

Date: 26 June 2019
Orbit: 594 x 964 km, 66.7° (Epoch: 20 July)

Event Time Altitude Azimuth Distance (km) Brightness Sun altitude
Rises 03:21:44 0° 295° (WNW) 3,626 9.3 -5.0°
Reaches altitude 10° 03:25:39 10° 318° (NW) 2,639 8.8 -4.5°
Maximum altitude 03:29:01 15° 352° (N) 2,255 9.0 -4.2°
Drops below altitude 10° 03:32:16 10° 25° (NNE) 2,529 10.1 -3.8°
Sets 03:35:54 0° 49° (NE) 3,387 12.8 -3.3°
